Location: Newark
(3.0500°N, 36.0167°E)
Time: 00:57:37
(UTC+00:00)

Tiros 1 despin weight - All Passes

Search period start: 21 August 2019 00:00
Search period end: 31 August 2019 00:00
Orbit: 594 x 642 km, 48.2° (Epoch: 20 August)

Date Brightness Start Highest point End Pass type
(mag) Time Alt. Az. Time Alt. Az. Time Alt. Az.
21 Aug - 05:22:27 10° N 05:26:16 25° NE 05:30:07 10° ESE daylight
21 Aug - 07:03:50 10° WNW 07:07:41 25° SW 07:11:33 10° S daylight
21 Aug - 17:32:29 10° S 17:35:59 23° SE 17:39:27 10° ENE visible
21 Aug - 19:13:47 10° WSW 19:17:20 24° NW 19:20:55 10° N night (unlit)
22 Aug - 05:38:13 10° NNW 05:42:51 67° NE 05:47:30 10° SE daylight
22 Aug - 17:48:09 10° SSW 17:52:32 64° SE 17:56:53 10° NE visible
23 Aug - 04:15:20 10° NNE 04:17:55 15° NE 04:20:32 10° E daylight
23 Aug - 05:54:57 10° WNW 05:59:23 44° SW 06:03:52 10° SSE daylight
23 Aug - 16:25:39 10° SSE 16:27:42 13° SE 16:29:45 10° ESE visible
23 Aug - 18:04:54 10° WSW 18:09:04 42° NW 18:13:15 10° NNE visible
24 Aug - 04:30:15 10° NNW 04:34:33 37° NE 04:38:53 10° ESE daylight
24 Aug - 06:12:55 10° W 06:15:58 17° SW 06:19:01 10° S daylight
24 Aug - 16:40:15 10° SSW 16:44:17 34° SE 16:48:17 10° ENE visible
24 Aug - 18:22:57 10° W 18:25:41 16° NW 18:28:25 10° N visible
25 Aug - 04:46:27 10° NW 04:51:07 80° SW 04:55:48 10° SE daylight
25 Aug - 16:56:24 10° SW 17:00:50 80° NW 17:05:13 10° NE visible
26 Aug - 03:22:41 10° N 03:26:14 22° NE 03:29:49 10° E daylight
26 Aug - 05:03:37 10° WNW 05:07:39 29° SW 05:11:43 10° S daylight
26 Aug - 15:32:47 10° S 15:36:01 20° SE 15:39:15 10° E daylight
26 Aug - 17:13:36 10° WSW 17:17:23 28° NW 17:21:09 10° N visible
27 Aug - 03:38:17 10° NNW 03:42:49 57° NE 03:47:24 10° SE daylight
27 Aug - 05:22:51 10° WSW 05:24:16 11° SW 05:25:41 10° SSW daylight
27 Aug - 15:48:15 10° SSW 15:52:35 55° SE 15:56:53 10° NE daylight
27 Aug - 17:33:13 10° WNW 17:34:02 10° NW 17:34:51 10° NW visible
28 Aug - 02:15:54 10° NNE 02:17:53 13° NE 02:19:53 10° ENE visible
28 Aug - 03:54:52 10° NW 03:59:22 51° SW 04:03:55 10° SSE daylight
28 Aug - 14:26:23 10° SSE 14:27:44 11° SE 14:29:05 10° ESE daylight
28 Aug - 16:04:50 10° SW 16:09:08 50° NW 16:13:23 10° NNE visible
29 Aug - 02:30:25 10° NNW 02:34:32 32° NE 02:38:41 10° ESE visible
29 Aug - 04:12:35 10° W 04:15:56 20° SW 04:19:19 10° S daylight
29 Aug - 14:40:25 10° S 14:44:20 30° SE 14:48:12 10° ENE daylight
29 Aug - 16:22:37 10° W 16:25:43 19° NW 16:28:48 10° N visible
30 Aug - 02:46:28 10° NW 02:51:05 88° NE 02:55:46 10° SE visible
30 Aug - 14:56:25 10° SW 15:00:53 87° SE 15:05:17 10° NE daylight
